Regional Weather Roundup
Issued by NWS

Home | Current Version | Previous Version | Text Only | Print | Product List | Glossary On
Versions: 1 2 3 4 5 6 7 8 9 10 11 12 13 14 15 16 17 18 19 20 21 22 23 24 25 26 27 28 29 30 31 32 33 34 35 36 37 38 39 40 41 42 43 44 45 46 47 48 49 50
000
ASUS43 KOAX 292110
RWRNE

WEATHER ROUNDUP FOR NEBRASKA
NATIONAL WEATHER SERVICE OMAHA NE
300 PM CST THU JAN 29 2015

NOTES: SATELLITE DATA IS BEING USED TO AUGMENT CLOUD COVER ABOVE
       12000 FEET.
       "FAIR" INDICATES FEW OR NO CLOUDS BELOW 12,000 FEET WITH NO
       SIGNIFICANT WEATHER AND/OR OBSTRUCTIONS TO VISIBILITY.

  * THESE STATIONS DO NOT REPORT WEATHER SUCH AS RAIN...SNOW OR FOG.

NEZ001>004-019>022-054>056-292200-
NEBRASKA PANHANDLE

CITY           SKY/WX    TMP DP  RH WIND       PRES   REMARKS
SCOTTSBLUFF    SUNNY     49  19  30 CALM      30.42F
ALLIANCE       SUNNY     43  13  29 CALM      30.42F
CHADRON        SUNNY     45  17  32 CALM      30.42F
KIMBALL        SUNNY     45  16  31 N3        30.41F
SIDNEY         SUNNY     46   9  22 N8        30.44F
$$

NEZ057>060-069>072-079>082-292200-
SOUTHWEST NEBRASKA

CITY           SKY/WX    TMP DP  RH WIND       PRES   REMARKS
NORTH PLATTE   SUNNY     46  19  34 NW10      30.44F
IMPERIAL       SUNNY     45  22  40 N12       30.46F
LEXINGTON      SUNNY     46  22  39 N10G20    30.44F
MCCOOK         SUNNY     47  22  37 N13       30.46F
OGALLALA       SUNNY     45  19  35 N9        30.45S
$$

NEZ005>010-023>029-035>040-094-292200-
NORTH CENTRAL NEBRASKA

CITY           SKY/WX    TMP DP  RH WIND       PRES   REMARKS
VALENTINE      SUNNY     44  18  35 N13       30.43F
AINSWORTH      SUNNY     42  20  42 NW12G20   30.43S
BROKEN BOW     SUNNY     45  22  40 N16       30.43F
O`NEILL        SUNNY     42  26  51 NW13G23   30.43R
ORD            SUNNY     45  21  38 NW17      30.42S
THEDFORD       SUNNY     45  19  35 NW9G16    30.44S
$$

NEZ041-046>049-061>064-073>077-083>087-292200-
SOUTH CENTRAL NEBRASKA

CITY           SKY/WX    TMP DP  RH WIND       PRES   REMARKS
GRAND ISLAND   SUNNY     45  23  42 N15       30.44S
AURORA         SUNNY     46  24  42 N18       30.43R
HASTINGS       SUNNY     45  23  42 N16       30.43S
HEBRON         SUNNY     46  23  41 N17G24    30.44S
HOLDREGE       SUNNY     45  21  39 NW13G20   30.45R
KEARNEY *      SUNNY     45  21  39 NW14G21   30.44S
YORK           SUNNY     45  25  45 N13G18    30.43S
$$

NEZ011>018-030>034-042>045-292200-
NORTHEAST NEBRASKA

CITY           SKY/WX    TMP DP  RH WIND       PRES   REMARKS
NORFOLK        SUNNY     40  25  55 NW25      30.41S WCI  29
ALBION         SUNNY     43  25  48 N15G21    30.42S
BLAIR          CLOUDY    38  25  59 NW18G26   30.41R WCI  28
COLUMBUS *     SUNNY     41  21  45 N14       30.45R
FREMONT        CLOUDY    40  26  57 NW14G23   30.43S WCI  32
TEKAMAH        CLOUDY    39  25  57 N20       30.43S WCI  29
WAYNE          CLOUDY    37  26  64 NW22      30.43R WCI  25
$$

NEZ050>053-065>068-078-088>093-292200-
SOUTHEAST NEBRASKA

CITY           SKY/WX    TMP DP  RH WIND       PRES   REMARKS
LINCOLN        CLOUDY    42  27  55 N16       30.45R
OMAHA EPPLEY   CLOUDY    38  25  59 N18G29    30.42R WCI  28
BEATRICE       PTSUNNY   42  27  55 N18G28    30.44R
FALLS CITY     CLOUDY    41  25  53 NW16G26   30.42R
NEBRASKA CITY  CLOUDY    38  22  52 N20       30.42R WCI  28
PLATTSMOUTH    CLOUDY    38  22  54 NW21G28   30.42R WCI  27
$$

NEZ044-045-051>053-067-292200-
OMAHA AREA

CITY           SKY/WX    TMP DP  RH WIND       PRES   REMARKS
OMAHA EPPLEY   CLOUDY    38  25  59 N18G29    30.42R WCI  28
BLAIR          CLOUDY    38  25  59 NW18G26   30.41R WCI  28
FREMONT        CLOUDY    40  26  57 NW14G23   30.43S WCI  32
MILLARD        CLOUDY    39  25  57 N10G24    30.43R WCI  32
OFFUTT AFB     CLOUDY    38  24  55 NW16G24   30.42R WCI  30
PLATTSMOUTH    CLOUDY    38  22  54 NW21G28   30.42R WCI  27
WAHOO          CLOUDY    40  24  52 N21G28    30.44R WCI  30
$$



USA.gov is the U.S. government's official web portal to all federal, state and local government web resources and services.